Погода в Тукайтепе

Узбекистан     41°19′59″N   69°24′29″E
темп.,
°C
ветер,
м/с
пор.,
м/с
влажн.,
%
обл.,
%
осадки,
мм/ч
давл.,
гПа
погр.,
м
5 декабря, вс
вс523:00+9ю2254100 0.0 102117
02:00+7ю346199 0.0 102262
05:00+6ю227077 0.0 102331
08:00+5ююв2278100 0.0 102433
11:00+8зюз2164100 0.0 1024351
14:00+9ссз2161100 0.0 1022668
17:00+8с1168100 0.0 102310
20:00+7в117497 0.0 102310
6 декабря, пн
пн623:00+6всв007797 0.0 102310
02:00+6вюв117972 0.0 102310
05:00+5всв117840 0.0 102310
08:00+5всв11734 0.0 102410
11:00+10з11520 0.0 1023262
14:00+12ссз11450 0.0 1021484
17:00+9с22565 0.0 102216
20:00+8ссв2263100 0.0 102212
7 декабря, вт
вт723:00+7св1161100 0.0 102310
02:00+7всв1155100 0.0 102310
05:00+7всв1148100 0.0 102310
08:00+8всв1144100 0.0 102410
11:00+11з0039100 0.0 1025150
14:00+12з2138100 0.0 1024306
17:00+10сз0047100 0.0 102510
20:00+11в6943100 0.0 1026140
8 декабря, ср
ср823:00+9з2246100 0.0 102640
02:00+8св1150100 0.0 102710
05:00+8з1151100 0.1 102810
08:00+8зсз115393 0.1 102910
11:00+12зюз11415 0.1 1030286
14:00+13з21365 0.0 1028715
17:00+10ссз11446 0.0 102910
20:00+9всв11520 0.0 103110
9 декабря, чт
чт923:00+8всв11560 0.0 103110
02:00+7св22560 0.0 103114
05:00+7св22500 0.0 103112
08:00+7всв22450 0.0 103110
11:00+13ссв11310 0.0 1030193
14:00+15ссз11260 0.0 1027379
17:00+11ссв22290 0.0 102612
20:00+9в11280 0.0 102610